Location: Ferchesar
(52.6477°N, 12.4298°E)
Time: 23:52:29
(UTC+01:00)

Transit 2A Rocket - Pass Details

Date: 13 December 2021
Orbit: 584 x 918 km, 66.7° (Epoch: 21 January)

Event Time Altitude Azimuth Distance (km) Brightness Sun altitude
Rises 04:24:55 0° 166° (SSE) 3,369 8.4 -33.2°
Reaches altitude 10° 04:27:57 10° 150° (SSE) 2,492 7.9 -32.7°
Maximum altitude 04:31:59 20° 106° (ESE) 1,949 7.7 -32.1°
Drops below altitude 10° 04:36:10 10° 62° (ENE) 2,599 8.4 -31.5°
Sets 04:39:23 0° 46° (NE) 3,563 9.1 -31.0°
